Location: Lake of the Woods (North-East)
(49.6672°N, 94.8656°W)
Time: 22:26:50
(UTC-05:00)

Daily predictions for brighter satellites

Satellite Brightness Start Highest point End
(mag) Time Altitude Azimuth Time Altitude Azimuth Time Altitude Azimuth
NOSS 3-2 (A) 4.0 19:26:02 10° S 19:31:37 38° ESE 19:37:42 10° NE
Cosmos 1408 Rocket 3.9 19:31:05 10° N 19:35:17 43° ENE 19:39:24 10° SSE
Cosmos 1437 3.3 19:34:28 10° NNW 19:37:44 65° W 19:40:58 10° S
USA 238 DEB 3.8 19:30:45 10° SW 19:37:48 83° SE 19:44:53 10° NE
USA 238 3.8 19:30:51 10° SW 19:37:54 82° SE 19:44:59 10° NE
TELKOM 3 3.5 19:35:39 10° W 19:39:02 71° SSW 19:41:23 10° ESE
Cosmos 1378 3.1 19:39:08 10° N 19:42:54 79° E 19:46:38 10° SSE
METEOR-M 4.2 19:39:44 10° SSE 19:45:01 62° ENE 19:50:19 10° N
Cosmos 2219 Rocket 3.2 19:43:32 10° SW 19:49:01 51° NW 19:54:34 10° NNE
Cosmos 1953 3.2 19:45:42 10° SSE 19:49:09 28° E 19:52:36 10° NNE
Meteor 1-28 Rocket 3.3 19:46:18 10° NNE 19:49:57 51° E 19:53:35 10° S
Okean 3 Rocket 4.1 19:46:05 10° NNW 19:50:37 66° W 19:55:08 10° S
Cosmos 2278 Rocket 4.3 19:46:40 10° NW 19:51:35 31° WSW 19:56:26 10° SSW
Cosmos 1805 4.0 19:50:24 10° SSE 19:53:53 31° E 19:57:24 10° NNE
H-2A R/B 3.8 19:50:59 10° ESE 19:54:15 26° ENE 19:57:31 10° N
ASTEX 1 4.4 19:51:49 10° NNE 19:55:54 25° E 19:59:56 10° SE
FENGYUN 3A 4.1 19:51:19 10° SE 19:56:21 43° ENE 20:01:26 10° N
SAR-Lupe-4 4.3 19:52:54 10° S 19:56:24 56° WSW 19:59:57 10° NNW
Resurs 1-3 3.8 19:53:30 10° SSE 19:57:46 53° ENE 20:02:04 10° N
Cosmos 1346 3.8 19:55:45 10° N 19:58:28 31° ENE 20:01:12 10° SE
Resurs 01 Rocket 1.6 19:54:13 10° SSE 19:58:38 69° ENE 20:03:05 10° N
Meteor 1-22 Rocket 4.1 19:58:09 10° S 20:03:29 89° ESE 20:08:49 10° NNE
Cosmos 1743 Rocket 4.0 19:59:25 10° N 20:03:40 42° ENE 20:07:52 10° SE
ERBS 3.9 20:01:40 10° NW 20:04:43 27° NNE 20:07:17 13° ENE
CENTAUR R/B 3.8 20:03:04 10° SE 20:06:41 16° ESE 20:10:33 10° ENE
Spot 2 Rocket 3.5 20:02:20 10° SSE 20:07:22 85° ENE 20:12:27 10° NNW
Helios 1A 2.9 20:05:15 10° SSE 20:09:27 78° ENE 20:13:42 10° NNW
NOSS 3-2 (C) 3.6 20:03:51 10° SSW 20:09:48 54° ESE 20:16:19 10° NE
Cosmos 2369 Rocket 2.8 20:04:38 10° NNW 20:09:58 40° NE 20:14:17 15° ESE
Cosmos 1943 Rocket 3.5 20:08:55 10° NNW 20:13:30 24° NE 20:16:39 16° E
Cosmos 1943 4.4 20:11:49 10° SE 20:15:27 18° E 20:19:05 10° ENE
Cosmos 1470 3.9 20:13:51 13° SE 20:16:25 23° E 20:19:32 10° NE
Nadezhda 4 Rocket 4.0 20:11:57 10° N 20:18:14 64° ENE 20:24:25 10° SSE
Envisat 4.3 20:16:19 17° E 20:18:32 22° ENE 20:22:25 10° N
COSMO-SKYMED 1 4.0 20:14:54 10° N 20:19:00 41° WNW 20:23:04 10° SW
Cosmos 1603 4.1 20:13:51 10° S 20:19:09 40° ESE 20:24:31 10° NE
SJ-6B 4.3 20:16:06 10° S 20:19:53 41° W 20:23:48 10° NNW
GP-B 4.1 20:17:42 10° NNE 20:21:30 27° E 20:23:34 19° ESE
Cosmos 482 Debris 3.8 20:21:30 10° W 20:23:38 48° N 20:25:10 23° ENE
Cosmos 1733 4.3 20:24:29 23° E 20:24:53 24° E 20:28:01 10° NE
Cosmos 1092 Rocket 4.1 20:19:06 10° N 20:25:13 54° ENE 20:31:15 10° SSE
HJ-1C 4.4 20:26:28 10° S 20:29:44 49° W 20:33:02 10° NNW
Cosmos 1758 3.3 20:27:17 10° S 20:31:22 82° E 20:35:31 10° NNE
Cosmos 2333 Rocket 3.9 20:27:34 10° WSW 20:32:51 35° NW 20:38:08 10° NNE
Cosmos 192 4.4 20:28:02 10° SSW 20:33:00 83° WNW 20:38:00 10° NNE
Cosmos 1674 2.7 20:29:56 10° N 20:33:47 60° ENE 20:36:37 17° SSE
Meteor 2-12 Rocket 4.4 20:28:07 10° S 20:34:14 74° E 20:40:24 10° NNE
Aureole 2 Rocket 3.9 20:32:19 10° SW 20:36:35 51° WNW 20:40:43 10° NNE
Cosmos 2026 Rocket 4.4 20:33:51 10° N 20:39:35 41° ENE 20:42:57 23° SE
USA 215 3.3 20:34:07 10° ENE 20:40:34 56° SE 20:46:57 10° SW
Meteor 1-29 3.0 20:40:29 10° NNE 20:44:03 83° W 20:47:32 10° SSW
Cosmos 1634 Rocket 4.3 20:39:18 10° SSE 20:45:09 44° E 20:50:58 10° NNE
Helios 1B rocket 2.6 20:41:48 10° N 20:45:55 72° WNW 20:50:00 10° SSW
H-2A R/B 3.6 20:48:55 21° ENE 20:48:55 21° ENE 20:52:17 10° NNE
ALOS 2.5 20:44:20 10° S 20:49:00 72° WSW 20:53:41 10° NNW
SeaSat 1 2.9 20:49:41 10° NE 20:54:13 35° ESE 20:58:44 10° S
Cosmos 2237 Rocket 4.1 20:51:08 10° WSW 20:56:04 29° NW 21:01:01 10° NNE
Cosmos 1110 Rocket 4.2 20:51:35 10° NNW 20:56:45 52° ENE 20:58:35 36° ESE
ERS-1 Rocket 3.2 20:55:08 34° ESE 20:56:50 48° ENE 21:01:40 10° N
CZ-4C R/B 3.5 20:51:37 10° W 20:56:57 41° NNW 21:03:01 10° NE
YAOGAN 11 4.4 20:57:08 41° E 20:57:51 45° ENE 21:01:58 10° N
Cosmos 1328 3.8 20:53:59 10° N 20:57:55 56° ENE 20:58:32 49° ESE
Cosmos 2034 Rocket 4.4 20:52:04 10° SSW 20:58:18 67° WNW 21:04:40 10° N
Cosmos 1939 Rocket 3.4 20:58:49 38° ENE 20:58:49 38° ENE 21:02:31 10° N
ATLAS 5 CENTAUR R/B 1.8 20:54:15 10° SW 20:59:08 89° SE 21:04:31 10° NE
CZ-4B DEB 4.0 20:57:05 12° S 20:59:54 43° W 21:03:03 10° NNW
Cosmos-2242 3.7 20:56:41 10° SSW 21:01:00 58° WNW 21:05:22 10° N
Cosmos 2195 Rocket 4.5 20:55:10 10° N 21:01:28 65° ENE 21:05:32 23° SSE
USA 186 2.8 21:04:11 30° NW 21:04:11 30° NW 21:05:37 10° NNW
ATLAS 3B R/B 4.3 20:57:18 10° W 21:04:03 35° NNW 21:10:32 10° NE
CZ-4 DEB 4.3 21:05:26 25° NNE 21:05:26 25° NNE 21:07:04 10° N
Cosmos 2221 4.2 21:08:46 20° NE 21:08:46 20° NE 21:10:23 10° NNE
SL-14 R/B 3.8 21:04:11 10° N 21:07:42 44° ENE 21:07:42 44° ENE
Cosmos 2151 2.8 21:04:52 10° N 21:09:06 73° E 21:09:57 54° SE
CZ-2D R/B 4.3 21:09:16 13° S 21:12:29 45° W 21:16:15 10° NNW
Cosmos 1500 Rocket 4.1 21:08:43 10° NNW 21:13:04 58° W 21:16:35 15° S
SL-16 R/B 3.6 21:10:39 10° WSW 21:15:58 40° NW 21:21:20 10° NNE
Cosmos 1842 Rocket 3.5 21:12:06 10° SSW 21:16:26 80° W 21:20:50 10° N
Cosmos 2058 3.0 21:12:39 10° N 21:16:28 58° ENE 21:16:28 58° ENE
Cosmos 1544 4.4 21:15:29 10° SSW 21:19:03 41° WNW 21:22:39 10° N
Cosmos 839 Rocket 4.4 21:13:18 10° NW 21:21:22 76° WSW 21:24:46 32° SSE
NOSS 3-2 (A) 4.1 21:16:04 10° WSW 21:22:15 58° NW 21:29:06 10° NE
Cosmos 1656 Rocket 4.4 21:17:25 10° NNW 21:22:19 33° NE 21:22:45 33° ENE
ARGOS 4.2 21:24:28 30° ENE 21:24:28 30° ENE 21:28:54 10° N
Cosmos 1666 Rocket 4.4 21:21:03 10° N 21:24:22 38° NE 21:24:22 38° NE
Cosmos 1953 4.4 21:22:08 10° SW 21:25:34 27° WNW 21:29:02 10° N
Cosmos 1627 Rocket 4.4 21:19:42 10° N 21:25:55 88° W 21:29:33 27° S
SL-24 R/B - RUBIN 2 4.5 21:20:10 10° NW 21:26:57 83° NE 21:28:58 48° SE
H-2A R/B 4.5 21:25:26 13° SSW 21:28:29 31° W 21:31:59 10° NNW
Terra 4.0 21:31:26 13° NE 21:31:26 13° NE 21:32:39 10° NNE
Cosmos 1331 Rocket 3.9 21:25:35 10° NNW 21:30:57 82° ENE 21:31:52 62° SE
ASTEX 1 4.4 21:30:26 10° N 21:35:07 45° WNW 21:39:46 10° SSW
SJ-11-01 4.4 21:35:23 51° SSW 21:36:27 71° WSW 21:41:09 10° NNW
ERBS 3.8 21:38:25 10° NW 21:40:42 38° NW 21:40:42 38° NW
Cosmos 1302 Rocket 4.0 21:36:59 10° NNW 21:42:02 63° NE 21:42:02 63° NE
Cosmos 2180 Rocket 4.4 21:46:50 62° E 21:46:50 62° E 21:52:51 10° NNE
Cosmos 1470 4.5 21:49:04 11° SW 21:52:24 32° WNW 21:55:56 10° N
Cosmos 2369 Rocket 3.2 21:48:45 10° NW 21:54:02 42° WSW 21:56:06 30° SSW
CENTAUR R/B 2.4 21:49:51 10° SSW 21:56:01 75° SE 22:03:04 10° NE
Envisat 3.2 21:56:31 58° SW 21:57:08 64° WSW 22:02:13 10° NNW
Cosmos 1943 Rocket 2.1 21:52:16 10° NNW 21:57:56 80° WSW 21:58:11 78° SSW
Cosmos 1943 3.1 21:53:07 10° SSW 21:58:47 84° WNW 22:04:27 10° NNE
NOSS 3-2 (C) 4.5 21:54:48 10° WSW 22:00:53 47° NNW 22:07:37 10° NE
H-2A R/B 3.5 22:03:03 25° NNE 22:03:03 25° NNE 22:05:51 10° N
SPOT 5 3.6 22:04:14 42° NNW 22:04:14 42° NNW 22:07:08 10° NNW
Sich 1 4.1 21:59:42 10° N 22:02:37 41° NNW 22:02:37 41° NNW
BREEZE-M DEB (TANK) 3.9 22:00:09 10° W 22:07:42 41° SW 22:07:42 41° SW
Cosmos 2279 Rocket 3.9 22:07:30 57° SSW 22:08:52 81° W 22:15:08 10° N
MetOp-B 4.2 22:11:31 72° NNW 22:11:31 72° NNW 22:16:20 10° NNW
Meteor 2-1 Rocket 4.3 22:13:43 75° WSW 22:14:01 77° WNW 22:19:57 10° N
Aureole 3 4.3 22:08:39 10° NNW 22:15:18 74° W 22:15:25 73° WSW
Cosmos 2266 Rocket 4.0 22:16:00 10° N 22:21:51 75° NNE 22:21:51 75° NNE
USA 215 3.5 22:20:58 37° NE 22:23:42 67° NNW 22:30:10 10° WSW
SPOT 1/Viking Rocket 4.3 22:25:50 47° N 22:25:50 47° N 22:29:29 10° NNW
H-2A R/B 3.5 22:26:03 37° NW 22:26:03 37° NW 22:29:01 10° NNW
SeaSat 1 3.5 22:27:09 10° NNE 22:31:50 44° NW 22:36:29 10° WSW
Lacrosse 4 Rocket 4.4 22:42:14 10° N 22:43:06 12° NNE 22:43:06 12° NNE
ATLAS 5 CENTAUR R/B 3.8 22:40:07 10° W 22:44:32 28° NNW 22:47:47 17° NNE
BREEZE-M DEB (TANK) 4.4 22:29:04 10° W 22:45:27 82° WSW 22:45:27 82° WSW
CZ-4C R/B 4.4 22:42:18 10° WNW 22:47:13 24° N 22:51:50 13° NE
ATLAS 3B R/B 4.5 22:50:54 10° NW 22:56:55 26° N 23:00:18 19° NE
ARGOS 4.5 23:05:59 37° NW 23:05:59 37° NW 23:09:34 10° NNW
Terra 4.0 23:10:19 22° NNW 23:10:19 22° NNW 23:11:58 10° NNW
Cosmos 1980 Rocket 4.2 23:21:25 10° NNW 23:24:13 22° NNE 23:24:13 22° NNE
H-2A R/B 4.3 23:43:42 21° NW 23:43:42 21° NW 23:45:32 10° NNW
CENTAUR R/B 3.8 23:41:14 10° W 23:47:19 40° NNW 23:54:11 10° NE
SL-16 R/B 4.5 23:51:20 10° N 23:53:50 18° NNE 23:53:50 18° NNE
